Location: Six Mile Lake
(44.9000°N, 79.7170°W)
Time: 04:11:58
(UTC-04:00)

UKube-1 - Pass Details

Date: 30 June 2022
Orbit: 608 x 615 km, 98.4° (Epoch: 17 August)

Event Time Altitude Azimuth Distance (km) Brightness Sun altitude
Rises 00:05:37 0° 5° (N) 2,896 ? -19.7°
Reaches altitude 10° 00:07:57 10° 355° (N) 1,985 ? -19.8°
Maximum altitude 00:11:49 33° 292° (WNW) 1,044 ? -20.0°
Enters shadow 00:14:49 15° 235° (SW) 1,674 ? -20.2°
